Погода в Косино

Россия / Кировская область     58°24′24″N   51°16′51″E
темп.,
°C
ветер,
м/с
пор.,
м/с
влажн.,
%
обл.,
%
осадки,
мм/ч
давл.,
гПа
погр.,
м
26 июля, пн
пн2600:00+9з22777 0.0 101916
03:00+10зюз1275100 0.0 102059
06:00+12юз267058 0.0 1020235
09:00+17зюз355732 0.0 1019477
12:00+21з453744 0.0 10182332
15:00+20зюз4746100 0.0 10171946
18:00+17юз376144 0.0 1015242
21:00+16зюз4136597 0.1 1015728
27 июля, вт
вт2700:00+14зсз31090100 0.2 1015543
03:00+11зсз279970 0.2 1015228
06:00+12сз3795100 0.1 1015547
09:00+16ссз46568 0.1 10151397
12:00+16сз4758100 0.1 10161365
15:00+16сз4748100 0.1 10161901
18:00+16ссз365312 0.0 10161380
21:00+10з247128 0.0 101667
28 июля, ср
ср2800:00+12з41058100 0.0 1015341
03:00+8з311815 0.0 1016260
06:00+12сз36700 0.0 1016283
09:00+17сз47440 0.0 10151351
12:00+20зсз46385 0.0 10132072
15:00+21зсз4834100 0.0 10122605
18:00+18зюз245687 0.0 101198
21:00+16зюз255690 0.0 1009118
29 июля, чт
чт2900:00+13з25745 0.0 100997
03:00+11зюз24913 0.0 100876
06:00+16юз247465 0.0 1007166
09:00+21юз3557100 0.0 1005596
12:00+23юз4555100 0.0 10041133
15:00+22юз3460100 0.0 1004898
18:00+19зюз268958 1.5 1003256
21:00+15зюз229731 1.8 100337
30 июля, пт
пт3000:00+14зюз239871 0.0 100364
03:00+13зюз2298100 0.0 100328
06:00+16зюз249552 0.0 1003197
09:00+21зюз4665100 0.0 1003994
12:00+22зюз586847 0.4 10021378
15:00+23зюз596414 1.3 10011589
18:00+19зюз51188100 1.3 1002426
21:00+16з259596 1.4 1003112